Le nostre stazioni meteo in Italia

Pubblicità
Il mio iltempo24.it
Piacenza, Italia (16084): Temperatura & dewpoint: 17.07.2019 06:00:00 - 23.07.2019 06:00:00 (CEST)Piacenza, Italia (16084): velocità del vento: 17.07.2019 06:00:00 - 23.07.2019 06:00:00 (CEST)Piacenza, Italia (16084): direzione del vento: 17.07.2019 06:00:00 - 23.07.2019 06:00:00 (CEST)Piacenza, Italia (16084): reduced air pressure: 17.07.2019 06:00:00 - 23.07.2019 06:00:00 (CEST)Piacenza, Italia (16084): visibility: 17.07.2019 06:00:00 - 23.07.2019 06:00:00 (CEST)Piacenza, Italia (16084): ore di luce: 17.07.2019 06:00:00 - 23.07.2019 06:00:00 (CEST)
Data & Tempo tt [°C] td [°C] ff [km/h] ff [kn] dd ppp [hPa] vv [km] sd [min]
23.07.2019 06:00:00 - - - - - - - -
23.07.2019 05:00:00 - - - - - - - -
23.07.2019 04:00:00 - - - - - - - -
23.07.2019 03:00:00 - - - - - - - -
23.07.2019 02:00:00 - - - - - - - -
23.07.2019 01:00:00 - - - - - - - -
23.07.2019 00:00:00 - - - - - - - -
22.07.2019 23:00:00 - - - - - - - -
22.07.2019 22:00:00 - - - - - - - -
22.07.2019 21:00:00 - - - - - - - -
22.07.2019 20:00:00 29,8 27,2 5 3 SSE 1018,3 15 0
22.07.2019 19:00:00 32,0 26,0 5 3 S - 10 -
22.07.2019 18:00:00 33,0 24,0 8 4 E - 10 -
22.07.2019 17:00:00 32,4 25,5 8 4 ESE 1019,0 12 42
22.07.2019 16:00:00 33,0 23,0 9 5 SE - 10 -
22.07.2019 15:00:00 33,0 25,0 5 3 ENE - 10 -
22.07.2019 14:00:00 32,0 22,4 5 3 SE 1020,4 10 60
22.07.2019 13:00:00 31,0 24,0 5 3 OSO - 10 -
22.07.2019 12:00:00 30,0 24,0 5 3 NO - 10 -
22.07.2019 11:00:00 28,0 25,0 8 4 NO 1021,6 10 48
22.07.2019 10:00:00 27,0 23,0 8 4 ONO - 10 -
22.07.2019 09:00:00 25,0 23,0 8 4 O - 10 -
22.07.2019 08:00:00 22,0 22,0 16 9 O 1021,3 12 0
22.07.2019 07:00:00 - - - - - - - -
22.07.2019 06:00:00 - - - - - - - -
22.07.2019 05:00:00 - - - - - - - -
22.07.2019 04:00:00 - - - - - - - -
22.07.2019 03:00:00 - - - - - - - -
22.07.2019 02:00:00 - - - - - - - -
22.07.2019 01:00:00 - - - - - - - -
22.07.2019 00:00:00 - - - - - - - -
21.07.2019 23:00:00 - - - - - - - -
21.07.2019 22:00:00 - - - - - - - -
21.07.2019 21:00:00 - - - - - - - -
21.07.2019 20:00:00 31,8 21,7 11 6 NNE 1016,5 20 30
21.07.2019 19:00:00 33,0 23,0 4 2 NNE - 10 -
21.07.2019 18:00:00 33,0 21,0 8 4 ONO - 10 -
21.07.2019 17:00:00 32,4 20,3 11 6 N 1016,5 20 60
21.07.2019 16:00:00 32,0 20,0 11 6 N - 10 -
21.07.2019 15:00:00 32,0 19,0 8 4 N - 10 -
21.07.2019 14:00:00 30,8 17,9 5 3 NO 1018,0 20 60
21.07.2019 13:00:00 30,0 17,0 8 4 NNO - 10 -
21.07.2019 12:00:00 30,0 18,0 5 3 N - 10 -
21.07.2019 11:00:00 28,6 16,2 4 2 NE 1018,5 20 60
21.07.2019 10:00:00 27,0 17,0 2 1 O - 10 -
21.07.2019 09:00:00 25,0 20,0 8 4 O - 10 -
21.07.2019 08:00:00 21,2 18,6 8 4 SO 1018,9 15 36
21.07.2019 07:00:00 - - - - - - - -
21.07.2019 06:00:00 - - - - - - - -
21.07.2019 05:00:00 - - - - - - - -
21.07.2019 04:00:00 - - - - - - - -
21.07.2019 03:00:00 - - - - - - - -
21.07.2019 02:00:00 - - - - - - - -
21.07.2019 01:00:00 - - - - - - - -
21.07.2019 00:00:00 - - - - - - - -
20.07.2019 23:00:00 - - - - - - - -
20.07.2019 22:00:00 - - - - - - - -
20.07.2019 21:00:00 - - - - - - - -
20.07.2019 20:00:00 29,0 20,5 11 6 O 1015,6 18 30
20.07.2019 19:00:00 31,0 20,0 5 3 E - 10 -
20.07.2019 18:00:00 31,0 20,0 5 3 SE - 10 -
20.07.2019 17:00:00 31,8 20,4 5 3 SSE 1015,9 18 60
20.07.2019 16:00:00 31,0 21,0 5 3 NNO - 10 -
20.07.2019 15:00:00 31,0 21,0 5 3 NNE - 10 -
20.07.2019 14:00:00 30,2 20,2 9 5 N 1016,6 18 60
20.07.2019 13:00:00 30,0 20,0 8 4 NNE - 10 -
20.07.2019 12:00:00 29,0 20,0 4 2 O - 10 -
20.07.2019 11:00:00 28,0 20,8 4 2 N 1016,6 18 60
20.07.2019 10:00:00 27,0 21,0 5 3 NNO - 10 -
20.07.2019 09:00:00 24,0 21,0 15 8 O - 10 -
20.07.2019 08:00:00 22,0 22,0 16 9 O 1016,5 15 36
20.07.2019 07:00:00 - - - - - - - -
20.07.2019 06:00:00 - - - - - - - -
20.07.2019 05:00:00 - - - - - - - -
20.07.2019 04:00:00 - - - - - - - -
20.07.2019 03:00:00 - - - - - - - -
20.07.2019 02:00:00 - - - - - - - -
20.07.2019 01:00:00 - - - - - - - -
20.07.2019 00:00:00 - - - - - - - -
19.07.2019 23:00:00 - - - - - - - -
19.07.2019 22:00:00 - - - - - - - -
19.07.2019 21:00:00 - - - - - - - -
19.07.2019 20:00:00 27,2 23,5 11 6 O 1013,7 16 30
19.07.2019 19:00:00 28,0 23,0 13 7 O - 10 -
19.07.2019 18:00:00 28,0 23,0 13 7 OSO - 10 -
19.07.2019 17:00:00 30,0 20,0 4 2 S 1014,0 14 60
19.07.2019 16:00:00 30,0 19,0 8 4 E - 10 -
19.07.2019 15:00:00 29,0 20,0 9 5 ESE - 10 -
19.07.2019 14:00:00 28,8 20,3 5 3 NO 1014,9 12 60
19.07.2019 13:00:00 28,0 22,0 8 4 E - 10 -
19.07.2019 12:00:00 27,0 23,0 8 4 E - 10 -
19.07.2019 11:00:00 26,2 23,3 8 4 E 1015,1 10 60
19.07.2019 10:00:00 25,0 23,0 4 2 SSO - 10 -
19.07.2019 09:00:00 23,0 21,0 2 1 NNE - 10 -
19.07.2019 08:00:00 21,0 21,0 5 3 OSO 1015,0 14 36
19.07.2019 07:00:00 - - - - - - - -
19.07.2019 06:00:00 - - - - - - - -
19.07.2019 05:00:00 - - - - - - - -
19.07.2019 04:00:00 - - - - - - - -
19.07.2019 03:00:00 - - - - - - - -
19.07.2019 02:00:00 - - - - - - - -
19.07.2019 01:00:00 - - - - - - - -
19.07.2019 00:00:00 - - - - - - - -
18.07.2019 23:00:00 - - - - - - - -
18.07.2019 22:00:00 - - - - - - - -
18.07.2019 21:00:00 - - - - - - - -
18.07.2019 20:00:00 25,4 19,5 5 3 S 1010,8 25 30
18.07.2019 19:00:00 27,0 19,0 15 8 SE - 10 -
18.07.2019 18:00:00 28,0 18,0 16 9 ESE - 10 -
18.07.2019 17:00:00 28,0 17,2 15 8 ESE 1010,3 25 60
18.07.2019 16:00:00 28,0 19,0 11 6 SE - 10 -
18.07.2019 15:00:00 27,0 17,0 16 9 ESE - 10 -
18.07.2019 14:00:00 25,4 22,3 5 3 S 1011,8 20 42
18.07.2019 13:00:00 22,0 22,0 4 2 OSO - 10 -
18.07.2019 12:00:00 21,0 21,0 5 3 NO - 10 -
18.07.2019 11:00:00 19,2 19,2 4 2 NO 1011,9 12 0
18.07.2019 10:00:00 19,0 19,0 8 4 SO - 10 -
18.07.2019 09:00:00 22,0 18,0 13 7 O - 10 -
18.07.2019 08:00:00 19,2 18,7 16 9 O 1010,7 18 0
18.07.2019 07:00:00 - - - - - - - -
18.07.2019 06:00:00 - - - - - - - -
18.07.2019 05:00:00 - - - - - - - -
18.07.2019 04:00:00 - - - - - - - -
18.07.2019 03:00:00 - - - - - - - -
18.07.2019 02:00:00 - - - - - - - -
18.07.2019 01:00:00 - - - - - - - -
18.07.2019 00:00:00 - - - - - - - -
17.07.2019 23:00:00 - - - - - - - -
17.07.2019 22:00:00 - - - - - - - -
17.07.2019 21:00:00 - - - - - - - -
17.07.2019 20:00:00 29,4 18,2 5 3 E 1008,6 20 36
17.07.2019 19:00:00 30,0 21,0 5 3 ESE - 10 -
17.07.2019 18:00:00 30,0 17,0 8 4 ESE - 10 -
17.07.2019 17:00:00 30,0 20,0 4 2 E 1009,9 20 60
17.07.2019 16:00:00 30,0 18,0 9 5 N - 10 -
17.07.2019 15:00:00 30,0 18,0 9 5 NO - 10 -
17.07.2019 14:00:00 29,2 17,7 8 4 NNE 1011,3 20 60
17.07.2019 13:00:00 28,0 16,0 8 4 E - 10 -
17.07.2019 12:00:00 28,0 18,0 5 3 ENE - 10 -
17.07.2019 11:00:00 27,0 17,5 5 3 E 1012,4 20 60
17.07.2019 10:00:00 25,0 18,0 4 2 NO - 10 -
17.07.2019 09:00:00 23,0 20,0 11 6 O - 10 -
17.07.2019 08:00:00 20,2 19,4 16 9 E 1013,0 20 24
17.07.2019 07:00:00 - - - - - - - -
17.07.2019 06:00:00 - - - - - - - -

tt = Temperatura
td = dewpoint
ff = velocità del vento
dd = direzione del vento
ppp = reduced air pressure
vv = visibility
sd = ore di luce

Stazioni seguenti

WeatherPro
AMSI
MeteoEarth